Location: *
(51.0333°S, 178.4667°E)
Time: 21:20:59
(UTC+00:00)

CZ-4 R/B - Pass Details

Date: 25 February 2020
Orbit: 531 x 599 km, 97.8° (Epoch: 09 April)

Event Time Altitude Azimuth Distance (km) Brightness Sun altitude
Rises 09:11:40 0° 182° (S) 2,826 5.6 -17.4°
Reaches altitude 10° 09:14:52 10° 209° (SSW) 1,933 5.2 -17.8°
Maximum altitude 09:16:48 13° 236° (SW) 1,742 5.0 -18.0°
Drops below altitude 10° 09:18:45 10° 264° (W) 1,940 4.9 -18.3°
Sets 09:21:58 0° 291° (WNW) 2,844 5.3 -18.6°
